Weather History for Doha, Qatar

Change the Weather History Date:

Friday, March 1, 2013

  Actual Average Record
Temperature  
Mean Temperature 74 °F -  
Max Temperature 81 °F 80 °F 93 °F (2012)
Min Temperature 66 °F 62 °F 53 °F (1997)
Cooling Degree Days 8    
Growing Degree Days 24 (Base 50)    
Moisture  
Dew Point 62 °F    
Average Humidity 69    
Maximum Humidity 88    
Minimum Humidity 42    
Precipitation  
Precipitation 0.00 in 0.02 in - ()
Sea Level Pressure  
Sea Level Pressure 30.04 in    
Wind  
Wind Speed 9 mph ()    
Max Wind Speed 18 mph    
Max Gust Speed 20 mph    
Visibility 5.7 miles    
Events      
Averages and records for this station are not official NWS values.
T = Trace of Precipitation, MM = Missing Value Source: Averaged Metar Reports

Daily Weather History Graph

Daily Weather History Graph

Search for Another Location

Airport:

Trip Planner

Search our weather history database for the weather conditions in past years. The results will help you decide how hot, cold, wet, or windy it might be!

Date:

Astronomy

Mar. 01, 2013 Rise Set
Actual Time 5:56 AM AST 5:35 PM AST
Civil Twilight 5:33 AM AST 5:58 PM AST
Nautical Twilight 5:07 AM AST 6:25 PM AST
Astronomical Twilight 4:40 AM AST 6:51 PM AST
Moon 9:11 PM AST (3/1) 7:56 AM AST (3/1)
Length of Visible Light 12h 25m
Length of Day
11h 39m
Waning Gibbous, 86% of the Moon is Illuminated
Mar 1
Waning Gibbous
Mar 5
Last Quarter
Mar 11
New
Mar 19
First Quarter
Mar 27
Full

Hourly Weather History & Observations

Time (AST) Temp. Heat Index Dew Point Humidity Pressure Visibility Wind Dir Wind Speed Gust Speed Precip Events Conditions
12:00 AM 68.0 °F - 59.0 °F 73% 30.04 in - East 4.6 mph - N/A   Clear
1:00 AM 68.0 °F - 59.0 °F 73% 30.04 in - East 5.8 mph - N/A   Clear
2:00 AM 68.0 °F - 60.8 °F 78% 30.01 in - East 6.9 mph - N/A   Clear
3:00 AM 67 °F - 62 °F 77% 30.03 in 6 mi East 5.8 mph - -  
3:00 AM 68.0 °F - 60.8 °F 78% 30.01 in - East 5.8 mph - N/A   Clear
4:00 AM 68.0 °F - 62.6 °F 83% 30.01 in 5.6 mi ESE 5.8 mph - N/A   Unknown
4:30 AM 66.2 °F - 60.8 °F 83% 30.01 in 5.6 mi SE 4.6 mph - N/A   Unknown
5:00 AM 68.0 °F - 62.6 °F 83% 30.04 in - ESE 6.9 mph - N/A   Clear
5:30 AM 68.0 °F - 62.6 °F 83% 30.04 in 5.6 mi SE 6.9 mph - N/A   Unknown
6:00 AM 68.0 °F - 64.4 °F 88% 30.04 in 5.0 mi SE 8.1 mph - N/A   Unknown
6:30 AM 68.0 °F - 64.4 °F 88% 30.06 in 5.0 mi SE 9.2 mph - N/A   Unknown
7:00 AM 68.0 °F - 64.4 °F 88% 30.06 in 5.0 mi SE 6.9 mph - N/A   Unknown
7:30 AM 69.8 °F - 64.4 °F 83% 30.06 in 5.6 mi SE 10.4 mph - N/A   Unknown
8:00 AM 71.6 °F - 62.6 °F 73% 30.06 in - SE 12.7 mph - N/A   Clear
8:30 AM 73.4 °F - 62.6 °F 69% 30.06 in - SE 15.0 mph - N/A   Clear
9:00 AM 75 °F - 58 °F 46% 30.09 in 6 mi SE 15.0 mph - -  
9:00 AM 75.2 °F - 59.0 °F 57% 30.06 in - SE 15.0 mph - N/A   Clear
9:30 AM 75.2 °F - 59.0 °F 57% 30.09 in - SE 15.0 mph - N/A   Clear
10:00 AM 77.0 °F - 59.0 °F 54% 30.09 in - SE 15.0 mph - N/A   Clear
10:30 AM 77.0 °F - 57.2 °F 50% 30.06 in - SE 16.1 mph - N/A   Clear
11:00 AM 78.8 °F - 57.2 °F 47% 30.06 in - SE 15.0 mph - N/A   Clear
11:30 AM 80.6 °F 80.8 °F 57.2 °F 45% 30.06 in - ESE 16.1 mph - N/A   Clear
12:00 PM 80.6 °F 80.5 °F 55.4 °F 42% 30.06 in - ESE 18.4 mph - N/A   Clear
12:30 PM 80.6 °F 80.8 °F 57.2 °F 45% 30.04 in - ESE 17.3 mph - N/A   Clear
1:00 PM 78.8 °F - 59.0 °F 51% 30.04 in - ESE 16.1 mph - N/A   Clear
1:30 PM 78.8 °F - 60.8 °F 54% 30.01 in - ESE 15.0 mph - N/A   Clear
2:00 PM 77.0 °F - 60.8 °F 57% 30.01 in - ESE 15.0 mph - N/A   Clear
2:30 PM 77.0 °F - 64.4 °F 65% 30.01 in - East 15.0 mph - N/A   Clear
3:00 PM 76 °F - 64 °F 57% 30.01 in 7 mi East 13.8 mph - -  
3:00 PM 77.0 °F - 64.4 °F 65% 30.01 in - East 13.8 mph - N/A   Clear
4:00 PM 75.2 °F - 64.4 °F 69% 30.01 in - East 12.7 mph - N/A   Clear
4:30 PM 75.2 °F - 64.4 °F 69% 30.01 in - East 11.5 mph - N/A   Clear
5:00 PM 73.4 °F - 64.4 °F 73% 30.01 in - East 10.4 mph - N/A   Clear
5:30 PM 73.4 °F - 62.6 °F 69% 30.01 in - East 9.2 mph - N/A   Clear
6:00 PM 73.4 °F - 62.6 °F 69% 30.01 in - ENE 8.1 mph - N/A   Clear
6:30 PM 71.6 °F - 62.6 °F 73% 30.01 in - ENE 6.9 mph - N/A   Clear
7:00 PM 71.6 °F - 62.6 °F 73% 30.01 in - ENE 6.9 mph - N/A   Clear
8:00 PM 71.6 °F - 64.4 °F 78% 30.04 in - East 8.1 mph - N/A   Clear
8:30 PM 71.6 °F - 64.4 °F 78% 30.04 in - East 8.1 mph 19.6 mph N/A   Clear
9:00 PM 71 °F - 64 °F 73% 30.06 in 6 mi ENE 8.1 mph - -  
9:00 PM 71.6 °F - 64.4 °F 78% 30.04 in - ENE 8.1 mph - N/A   Clear
9:30 PM 71.6 °F - 64.4 °F 78% 30.04 in - East 6.9 mph - N/A   Clear
10:00 PM 71.6 °F - 64.4 °F 78% 30.04 in - East 10.4 mph - N/A   Clear
11:00 PM 71.6 °F - 64.4 °F 78% 30.04 in - East 6.9 mph - N/A   Clear
11:30 PM 71.6 °F - 64.4 °F 78% 30.04 in - ESE 6.9 mph - N/A   Clear